SCP
0 0 0 0 0 0 0 0 -0 -0 0 0 0 0 0 0 0 0 0 0 0 0 0 0 0 0 0 0 0 0 0 0 0 0 0 0 0 0 0 0 0 -0 -0 -0 -0 0 0 0 0
0 0 0 0 0 0 0 0 -0 -0 -0 0 0 0 0 0 0 0 0 0 0 0 0 0 0 0 0 0 0 0 0 0 0 0 0 0 0 0 0 0 0 0 -0 -0 -0 0 0 0 0
0 0 0 0 0 0 0 -0 -0 -0 -0 0 0 0 0 0 0 0 0 0 0 0 0 0 0 0 0 0 0 0 0 0 0 0 0 0 0 0 0 0 0 0 0 0 0 0 0 0 0
0 0 0 0 0 0 0 0 -0 -0 -0 0 0 0 0 0 -0 0 0 0 0 0 0 0 0 0 0 0 0 0 0 0 0 0 0 0 0 0 0 0 0 0 0 0 0 0 0 0 0
0 0 0 0 0 0 0 0 -0 -0 -0 -0 0 0 0 -0 -0 0 0 0 0 0 0 0 0 0 0 0 0 0 0 0 0 0 0 0 0 0 0 0 0 0 0 0 0 0 0 0 0
0 0 0 0 0 0 0 0 -0 -0 -0 -0 -0 0 0 0 0 0 0 0 0 0 0 0 0 0 0 0 0 0 0 0 0 0 0 0 0 0 0 0 0 0 0 0 0 0 0 0 0
0 0 0 0 0 0 0 0 -0 -0 -0 -0 -0 0 0 0 0 0 0 0 0 0 0 0 0 0 0 0 0 0 0 0 0 0 0 0 0 0 0 0 0 0 0 0 0 0 0 0 0
0 0 0 0 0 0 0 0 0 0 -0 0 -0 0 0 0 0 0 0 0 0 0 0 0 0 0 0 0 0 0 0 0 0 0 0 0 0 0 0 0 0 0 0 0 0 0 0 0 0
0 0 0 0 0 0 0 0 0 0 0 0 0 0 0 0 0 0 0 0 0 0 0 0 0 0 0 0 0 0 0 0 0 0 0 0 0 0 0 0 0 0 0 0 0 0 0 0 0
0 0 0 0 0 0 0 0 0 0 0 0 0 0 0 0 1 0 0 0 0 0 0 0 0 0 0 0 0 0 0 0 0 0 0 0 0 0 0 0 0 0 0 0 0 0 0 0 0
0 0 0 0 0 0 0 0 0 0 0 0 0 0 0 1 1 1 0 0 0 0 0 0 0 0 0 0 0 0 0 0 0 0 0 0 0 0 0 0 0 0 0 0 0 0 0 0 0
0 0 0 0 0 0 0 0 0 0 0 0 0 0 0 1 1 1 1 0 0 0 0 0 0 0 0 0 0 0 0 0 0 0 0 0 0 0 0 0 0 0 0 0 0 0 0 0 0
0 0 0 0 0 0 0 0 0 0 0 0 0 0 0 1 1 1 1 0 0 0 0 0 0 0 0 0 0 0 0 0 0 0 0 0 0 0 0 0 0 0 0 0 0 0 0 0 0
0 0 0 0 0 0 0 0 0 0 0 0 0 0 0 1 1 1 1 1 0 0 0 0 1 1 1 1 0 0 0 0 0 0 0 0 0 0 0 0 0 0 0 0 0 0 0 0 0
0 0 0 0 0 0 0 0 0 0 0 0 0 0 1 1 1 1 1 1 1 1 1 1 1 1 1 1 1 1 0 0 0 0 1 1 1 1 1 0 0 0 0 0 0 0 0 0 0
0 0 0 0 0 0 0 0 0 0 0 0 0 1 1 1 1 1 1 1 1 1 1 1 1 1 1 1 1 1 1 1 1 1 1 1 1 1 1 1 1 1 1 1 1 0 0 0 0
0 0 0 0 0 0 0 0 0 0 0 0 1 1 1 1 1 1 1 1 1 1 1 1 1 1 1 2 2 1 1 1 1 1 1 1 1 1 1 1 1 1 1 1 1 1 1 1 1
0 0 0 0 0 0 0 0 0 1 1 1 1 1 2 2 2 2 1 1 1 1 2 2 2 2 2 2 2 2 2 2 2 2 2 2 2 2 2 1 1 1 1 1 1 1 1 1 1
0 0 0 0 0 0 0 0 0 1 1 1 2 2 2 2 2 2 2 2 2 2 2 2 2 3 3 3 3 3 3 2 2 2 2 2 2 2 2 2 2 2 2 1 1 1 1 1 1
0 0 0 0 0 0 0 0 0 1 1 1 2 2 2 2 2 2 2 2 2 2 2 2 3 3 3 4 4 4 4 3 3 3 3 3 2 2 2 2 2 2 2 2 1 1 1 1 1
0 0 0 0 0 0 0 0 0 0 0 1 1 1 1 2 2 2 2 2 2 2 2 2 3 3 3 4 4 4 4 4 4 4 3 3 3 3 2 2 2 2 2 2 2 1 1 1 1
0 0 0 0 0 0 0 0 0 0 0 0 1 1 1 1 1 1 1 2 2 2 2 2 2 3 3 4 4 4 4 4 4 4 4 3 3 3 2 2 2 2 2 2 2 1 1 1 1
0 0 -0 -0 0 0 0 0 0 0 0 0 0 1 1 1 1 1 1 1 1 1 1 2 2 3 3 3 4 4 4 4 4 4 4 3 3 3 2 2 2 2 2 2 2 1 1 1 1
0 0 0 0 0 0 0 0 0 0 0 0 0 0 0 0 0 0 0 1 1 1 1 1 2 2 2 3 3 3 3 3 3 3 3 3 3 3 3 2 2 2 2 2 1 1 1 1 1
0 0 0 0 0 0 0 0 0 0 0 0 0 0 0 0 0 0 0 0 0 0 1 1 1 2 2 2 2 3 3 3 3 3 3 3 3 3 3 2 2 2 2 1 1 1 1 1 1
0 0 0 0 0 0 0 0 0 0 0 0 0 0 0 0 0 0 0 0 0 0 0 1 1 1 1 2 2 2 3 3 3 3 3 3 3 3 2 2 2 2 1 1 1 1 1 0 0
0 0 0 0 0 0 0 0 0 0 0 0 0 0 0 0 0 0 0 0 0 0 0 0 1 1 1 1 2 2 2 2 3 3 3 3 2 2 2 2 1 1 1 1 1 0 0 0 0
0 0 0 0 0 0 0 0 0 0 0 0 0 0 0 0 0 0 0 0 0 0 0 0 0 1 1 1 1 1 1 2 2 2 2 2 2 1 1 1 1 1 1 0 0 0 0 0 0
0 0 0 0 0 0 0 0 0 0 0 0 0 0 0 0 0 0 0 0 0 0 0 0 0 0 1 1 1 1 1 1 1 1 1 1 1 1 0 0 0 0 0 0 0 0 0 0 0
0 0 0 0 0 0 0 0 0 0 0 0 0 0 0 0 0 0 0 0 0 0 0 0 0 0 0 1 1 1 1 1 1 1 1 1 0 0 0 0 0 0 0 0 0 0 0 0 0
Wind_Speed
9 7 6 6 8 2 10 8 6 5 4 4 5 1 2 1 3 5 6 16 17 18 19 19 16 15 15 14 14 14 14 14 14 13 13 12 11 11 10 9 8 7 7 7 7 7 7 7 7
5 5 6 7 6 5 9 7 6 6 6 5 4 2 2 1 5 6 10 16 17 18 18 18 18 16 15 15 14 14 13 13 13 12 12 11 10 10 9 9 8 7 7 7 6 6 6 6 6
6 7 7 6 3 7 7 6 5 6 4 2 2 1 3 4 3 6 12 17 17 17 17 17 19 17 16 15 14 14 13 13 12 12 11 10 10 9 9 8 8 7 7 6 6 5 5 5 5
6 7 8 4 5 8 5 3 3 5 3 1 1 1 3 5 2 7 15 17 17 17 16 18 19 17 16 15 14 14 13 12 12 11 10 10 9 9 9 8 8 7 7 6 5 5 4 4 4
7 7 6 2 6 6 5 2 3 1 2 1 1 1 4 5 5 11 16 17 16 16 15 19 18 16 15 15 14 13 13 12 11 11 10 9 9 8 8 8 7 7 6 5 5 4 4 5 5
6 6 5 2 6 5 5 2 2 1 2 1 1 2 6 6 9 13 15 14 15 14 14 17 17 15 15 14 14 13 12 12 11 10 10 9 9 8 7 7 7 7 6 5 5 4 4 5 5
7 6 3 0 4 5 6 2 1 1 1 1 1 1 7 8 10 12 13 13 13 14 13 14 16 15 14 13 13 13 12 11 11 10 10 9 9 8 8 7 7 7 6 6 6 6 6 6 6
6 6 5 3 2 4 5 2 2 3 2 3 3 1 4 13 13 12 12 12 12 12 12 13 14 14 14 14 14 12 12 12 11 10 10 9 9 9 9 9 9 8 7 7 7 7 8 8 8
6 8 6 2 1 3 5 3 3 1 3 3 4 2 3 16 16 14 12 13 12 12 11 11 14 13 13 13 14 14 13 12 12 12 12 10 11 11 11 11 8 8 9 9 9 9 10 10 12
7 9 2 3 2 4 5 4 2 3 4 5 6 4 7 16 17 16 15 16 16 15 14 11 12 12 12 10 10 10 11 12 12 10 11 10 8 6 7 8 8 9 10 11 12 11 11 13 9
6 6 1 2 3 5 6 4 3 5 4 2 4 8 13 17 18 17 17 16 15 15 14 13 11 10 11 8 8 7 7 7 10 11 10 8 7 6 7 6 9 10 11 10 9 10 9 7 5
5 3 3 5 5 6 7 6 5 6 5 5 4 6 16 19 20 19 17 15 14 14 14 13 12 10 10 9 7 7 7 7 7 9 11 9 6 6 6 5 6 5 5 6 6 5 7 7 7
6 4 5 6 8 8 8 8 5 5 6 5 3 8 16 18 18 17 15 14 13 13 13 13 12 11 10 9 7 8 8 7 8 7 9 9 8 7 7 6 5 7 6 6 6 6 6 7 8
1 5 7 7 7 5 7 7 6 3 7 4 4 8 13 15 16 15 14 13 13 13 13 12 12 12 11 9 9 8 8 7 9 8 10 11 9 7 7 7 7 7 7 6 6 7 6 7 6
4 7 8 5 5 2 6 10 2 7 7 5 4 6 8 11 13 14 13 13 13 12 12 12 12 13 13 12 12 9 9 9 9 8 9 10 11 9 8 8 7 7 7 7 7 7 6 7 7
6 8 8 4 2 2 8 10 4 8 7 5 4 3 5 8 10 10 11 11 11 11 11 12 11 13 13 12 11 9 9 9 8 8 8 11 11 10 9 9 8 7 7 7 6 7 6 6 6
7 6 3 3 2 3 6 6 5 8 7 5 4 3 3 5 7 8 9 10 11 11 11 11 12 12 12 12 10 11 9 9 8 8 8 9 11 11 10 9 7 8 7 6 7 6 6 6 6
2 3 4 4 1 5 6 4 3 6 6 6 5 3 2 2 3 4 7 8 9 10 11 11 12 12 11 10 9 9 10 9 9 9 9 10 9 11 10 9 10 10 7 7 7 7 6 6 7
2 4 4 2 1 6 6 5 3 5 5 5 5 5 3 2 2 2 3 6 7 9 10 10 11 11 10 9 9 9 9 9 9 10 11 11 11 11 10 9 9 9 8 8 8 7 7 7 6
4 5 4 3 1 6 7 7 2 1 3 5 5 5 5 4 2 2 2 3 5 6 8 9 10 11 11 9 8 7 8 8 8 8 10 12 12 12 10 11 9 8 7 9 8 7 6 6 5
3 4 4 7 7 10 10 11 9 6 3 2 3 4 5 6 6 5 4 4 4 4 5 6 8 9 11 11 8 8 7 8 9 10 9 11 12 11 11 10 9 8 8 7 7 7 7 6 5
3 2 7 9 12 11 8 12 9 7 6 4 3 4 5 6 6 6 6 6 5 5 5 5 6 7 8 9 10 13 11 11 12 9 8 9 10 10 9 9 8 8 6 6 6 6 6 6 6
6 6 10 12 14 16 15 14 10 6 8 3 3 3 4 5 6 6 7 7 7 7 6 6 6 7 7 8 10 11 12 11 9 7 9 9 8 9 9 8 7 7 6 7 7 6 6 5 6
6 10 13 12 12 15 11 11 10 4 2 1 2 3 4 5 5 5 6 6 6 7 7 7 7 7 7 8 9 10 12 12 11 11 10 8 6 7 9 8 7 7 6 7 7 7 8 5 5
7 10 9 8 8 6 2 8 7 4 2 1 2 3 4 5 5 6 7 7 7 8 8 7 8 8 8 8 8 9 11 11 13 11 10 8 6 6 8 8 7 6 6 6 6 6 5 5 5
6 8 8 9 9 11 10 9 3 3 1 2 3 4 5 6 6 7 7 7 7 8 8 8 9 9 9 9 8 8 9 8 8 9 8 8 6 6 6 7 7 7 6 5 5 5 5 4 4
6 6 7 11 15 14 9 6 4 4 4 5 5 6 7 7 7 8 8 8 7 8 8 9 9 10 9 9 9 8 7 7 7 7 7 5 4 5 8 7 6 6 6 6 6 4 4 4 4
5 7 6 7 8 10 9 10 5 2 4 5 7 8 8 9 9 8 8 7 7 7 6 7 8 9 9 9 8 6 6 5 5 4 3 2 3 4 7 8 7 6 6 6 5 5 4 4 3
5 6 7 8 8 10 11 7 4 4 6 7 9 9 9 9 9 8 8 7 7 6 6 6 7 8 8 8 7 7 5 3 1 1 3 5 5 6 7 7 6 6 6 5 5 5 5 5 4
8 9 9 10 10 11 12 10 2 3 7 9 11 11 9 9 9 8 7 6 6 6 5 5 6 7 7 6 6 5 4 3 3 5 6 6 7 7 7 6 6 5 5 5 6 6 6 6 5
Wind_Direction
204 210 223 233 240 168 66 58 50 76 88 98 131 196 300 332 334 44 107 150 149 148 146 155 161 161 156 149 145 144 146 149 151 153 155 156 157 157 155 153 150 144 134 126 121 118 116 116 117
230 203 226 242 271 78 71 46 55 51 71 111 140 226 276 75 44 97 139 149 152 149 151 159 159 163 159 154 150 149 149 151 152 154 156 158 159 161 162 160 159 156 149 142 136 130 127 127 129
230 228 258 256 14 44 55 44 65 92 108 162 155 330 351 35 93 136 142 153 155 153 155 152 161 165 162 159 156 154 154 154 156 157 159 162 164 167 167 167 167 165 160 156 151 146 144 145 149
231 229 240 262 67 53 23 35 112 139 133 131 232 117 80 46 109 136 143 158 158 160 158 152 167 167 166 164 161 160 159 160 161 162 164 167 171 175 174 173 174 172 169 168 167 168 167 171 177
244 260 248 160 69 53 37 50 172 203 58 74 266 64 91 94 116 138 153 162 164 164 160 155 169 171 170 169 167 165 164 165 167 168 170 172 176 180 178 178 179 179 181 185 188 194 197 200 204
250 256 252 130 84 64 49 79 178 357 33 101 179 121 91 113 143 152 158 167 170 166 164 151 168 176 176 175 173 171 171 171 173 175 176 178 181 184 184 187 189 192 198 205 211 215 221 224 224
274 273 263 84 90 80 40 37 239 326 329 69 146 129 120 147 151 157 158 174 175 171 171 158 171 178 181 182 181 179 178 178 180 182 183 185 188 192 195 199 203 207 213 221 230 235 239 241 238
285 270 223 179 111 78 42 41 35 314 45 100 182 225 142 159 158 162 166 177 180 179 181 169 177 178 182 183 186 187 187 187 188 191 193 194 198 203 206 212 204 216 224 231 239 246 249 251 248
260 256 234 161 104 62 21 8 64 96 138 173 206 297 79 149 162 169 173 180 183 188 191 188 181 181 189 189 176 187 192 195 197 198 199 206 214 206 197 214 190 220 233 239 244 247 250 252 239
244 250 247 59 353 341 348 339 333 209 201 202 194 161 148 156 171 181 185 188 188 190 192 195 197 182 193 194 177 196 199 192 208 207 199 211 222 231 228 153 196 230 241 245 244 248 249 244 241
245 266 314 226 302 319 308 306 285 265 250 240 228 182 169 174 182 191 195 196 194 191 192 193 202 194 200 195 194 199 206 197 208 213 212 223 227 219 226 210 197 214 226 237 220 227 239 242 250
243 238 268 289 311 299 300 302 289 278 316 350 301 192 179 186 191 197 198 200 195 195 194 194 195 198 210 212 204 207 212 207 213 203 215 219 222 233 233 233 240 228 226 236 254 253 253 259 261
231 250 270 277 281 288 282 270 285 285 329 326 280 191 193 195 197 199 200 200 201 198 198 199 194 198 205 216 225 219 223 221 217 222 213 230 230 229 231 234 242 249 245 235 236 251 262 265 258
266 270 264 270 275 265 271 272 252 318 335 312 249 212 209 206 202 199 200 200 203 203 202 199 200 200 204 211 221 230 230 221 236 223 222 221 234 235 236 234 232 245 250 256 260 256 258 261 267
260 260 248 234 251 253 271 244 222 353 325 299 260 230 224 217 210 207 202 205 207 205 206 203 202 203 205 213 220 226 230 228 229 229 227 225 232 230 234 242 237 239 243 243 250 259 260 260 265
234 239 232 155 237 225 261 246 68 355 330 313 299 258 233 220 221 218 211 209 214 214 206 209 208 205 206 214 222 229 231 232 231 232 228 223 233 234 235 242 241 239 244 244 245 255 261 265 271
214 225 229 182 158 284 264 273 28 355 343 334 325 298 251 223 224 223 224 217 217 219 216 214 216 216 213 213 217 229 232 236 236 233 232 226 228 231 233 242 246 245 245 248 253 247 258 266 271
204 228 224 244 91 282 258 271 1 5 2 1 356 347 310 267 254 242 235 233 225 222 221 222 216 218 218 215 216 227 230 229 231 232 228 230 228 229 233 237 240 245 244 243 247 256 256 265 269
256 260 259 264 348 282 272 277 328 4 6 20 16 10 1 346 342 308 256 242 233 229 229 227 228 218 217 220 220 219 224 227 229 230 230 230 234 234 233 242 236 236 240 243 243 244 249 253 262
226 248 254 229 237 284 281 269 228 4 15 24 23 23 16 12 17 8 337 282 256 242 240 237 231 227 222 223 227 233 238 238 236 235 235 233 236 239 237 239 241 238 240 239 237 239 252 254 246
219 289 315 305 295 258 270 262 204 183 178 95 60 43 36 25 17 13 3 354 331 307 283 269 255 245 235 232 228 232 230 238 240 236 233 232 234 238 242 244 243 242 239 237 232 227 234 242 241
261 344 307 296 289 287 284 286 264 200 194 159 88 60 48 36 27 18 9 1 348 331 311 293 280 267 258 247 240 237 234 237 239 240 238 236 236 237 236 237 236 237 235 231 232 225 229 236 245
327 327 298 290 284 280 271 271 277 193 228 181 94 58 43 32 19 11 4 355 349 337 323 311 302 287 273 262 253 250 250 251 253 245 241 238 233 230 225 221 219 222 219 218 220 216 226 229 241
308 288 278 262 262 265 271 276 279 258 261 117 78 45 30 18 4 360 353 347 342 337 332 323 309 300 291 277 266 258 258 258 256 248 242 234 226 224 221 213 208 212 212 208 206 206 214 225 239
298 308 294 272 248 270 341 281 277 37 60 349 343 352 355 347 342 342 340 339 334 332 331 325 317 307 299 287 273 265 261 258 254 250 243 237 228 220 213 204 192 193 203 199 193 200 208 212 220
324 310 308 305 303 309 294 266 308 72 183 242 280 300 308 311 319 323 324 325 326 327 328 325 321 314 307 297 287 279 271 262 257 250 247 237 224 214 199 192 179 171 176 181 184 189 194 197 211
305 306 328 291 283 280 272 265 266 181 225 244 268 280 292 300 304 305 309 315 318 321 326 326 322 318 316 312 303 287 274 264 262 257 245 239 217 192 176 167 160 159 165 167 183 182 182 182 203
291 312 277 279 296 292 283 283 278 238 269 276 284 292 296 297 294 297 302 305 307 311 319 328 328 325 323 321 313 302 288 270 259 250 231 182 159 160 156 147 144 153 152 156 178 167 154 161 145
266 258 278 284 279 287 292 299 23 300 298 298 304 307 301 297 296 295 296 300 301 303 315 326 329 331 333 332 328 323 319 307 269 125 107 110 109 109 115 117 124 135 142 151 158 142 144 140 124
273 274 272 276 280 266 276 285 335 272 287 292 299 301 297 293 293 292 291 292 292 297 308 321 331 335 336 339 341 349 357 24 72 86 89 96 98 97 101 108 116 123 130 141 143 136 127 121 112